This is the latest recevied weather packets stored in our database for station/object KD4EG. If no packets are shown the sender has not sent any weather packets the latest 10 day(s).
| Time | Temp. | Humidity | Pressure | Rain* | Wind** | Luminosity | Snow |
|---|---|---|---|---|---|---|---|
| 1777783731 | 6.11° C | 70% | 1017.7 hPa | 0 mm | - | 0 W/m² | - |
| 1777783428 | 6.11° C | 69% | 1017.6 hPa | 0 mm | - | 0 W/m² | - |
| 1777783125 | 6.11° C | 71% | 1017.9 hPa | 0 mm | - | 0 W/m² | - |
| 1777782822 | 5.56° C | 71% | 1017.7 hPa | 0 mm | - | 0 W/m² | - |
| 1777782518 | 6.11° C | 72% | 1017.7 hPa | 0 mm | - | 0 W/m² | - |
| 1777782215 | 5.56° C | 74% | 1017.4 hPa | 0 mm | - | 0 W/m² | - |
| 1777781911 | 5.56° C | 74% | 1017.6 hPa | 0 mm | - | 0 W/m² | - |
| 1777781608 | 6.11° C | 73% | 1017.5 hPa | 0 mm | - | 0 W/m² | - |
| 1777781306 | 6.11° C | 72% | 1017.4 hPa | 0 mm | - | 0 W/m² | - |
| 1777781004 | 6.11° C | 70% | 1017.2 hPa | 0 mm | - | 0 W/m² | - |
| 1777780700 | 6.67° C | 68% | 1017.1 hPa | 0 mm | - | 0 W/m² | - |
| 1777780397 | 6.67° C | 68% | 1017.3 hPa | 0 mm | - | 0 W/m² | - |
| 1777780095 | 7.22° C | 67% | 1017.4 hPa | 0 mm | - | 0 W/m² | - |
| 1777779792 | 6.67° C | 64% | 1017.3 hPa | 0 mm | - | 0 W/m² | - |
| 1777779489 | 6.67° C | 68% | 1017.1 hPa | 0 mm | - | 0 W/m² | - |
| 1777779186 | 6.67° C | 68% | 1017.3 hPa | 0 mm | - | 0 W/m² | - |
| 1777778884 | 7.22° C | 67% | 1017.3 hPa | 0 mm | - | 0 W/m² | - |
| 1777778583 | 7.22° C | 64% | 1017.4 hPa | 0 mm | - | 0 W/m² | - |
| 1777778280 | 7.78° C | 63% | 1017.1 hPa | 0 mm | - | 0 W/m² | - |
| 1777777978 | 7.78° C | 63% | 1017.2 hPa | 0 mm | - | 0 W/m² | - |
| 1777777674 | 7.78° C | 60% | 1017.2 hPa | 0 mm | - | 0 W/m² | - |
| 1777777370 | 7.78° C | 60% | 1017.2 hPa | 0 mm | - | 0 W/m² | - |
| 1777777067 | 7.78° C | 62% | 1017.2 hPa | 0 mm | - | 0 W/m² | - |
| 1777776765 | 7.78° C | 60% | 1017.3 hPa | 0 mm | - | 0 W/m² | - |
| 1777776461 | 7.78° C | 62% | 1017.3 hPa | 0 mm | - | 0 W/m² | - |
* Rain latest hour (hover to see other rain measurements)
** Current wind speed in m/s (hover to see current wind gust speed)